Wetterdaten: Montag, 04.01.2016
Datum Zeit Temp. A. Feuchte A. Luftdruck Regen Wind Richtung Richtung Sonnenschein ET UV Solar Taupunkt Windchill Windben Empfang
04.01.2016 00:00 -6,4 C 92 % 1002,5 hPa 0,0 l/m 18,3 km/h (3 Bft) NO 51 0 min 0,000 mm 0,0 UV-I 0 W/m -7,5 C -16,9 C 29,0 km/h (5 Bft) 99,13 %
04.01.2016 00:05 -6,4 C 92 % 1002,4 hPa 0,0 l/m 19,4 km/h (3 Bft) NO 52 0 min 0,000 mm 0,0 UV-I 0 W/m -7,5 C -17,6 C 30,6 km/h (5 Bft) 100,00 %
04.01.2016 00:10 -6,4 C 92 % 1002,3 hPa 0,0 l/m 17,5 km/h (3 Bft) NO 50 0 min 0,000 mm 0,0 UV-I 0 W/m -7,5 C -16,4 C 22,5 km/h (4 Bft) 97,46 %
04.01.2016 00:15 -6,4 C 92 % 1002,1 hPa 0,0 l/m 20,7 km/h (4 Bft) NO 51 0 min 0,000 mm 0,0 UV-I 0 W/m -7,5 C -18,3 C 35,4 km/h (5 Bft) 98,35 %
04.01.2016 00:20 -6,4 C 92 % 1002,0 hPa 0,0 l/m 19,6 km/h (3 Bft) NO 54 0 min 0,000 mm 0,0 UV-I 0 W/m -7,5 C -17,7 C 27,4 km/h (4 Bft) 99,15 %
04.01.2016 00:25 -6,4 C 92 % 1001,9 hPa 0,0 l/m 24,4 km/h (4 Bft) O-NO 74 0 min 0,000 mm 0,0 UV-I 0 W/m -7,5 C -20,1 C 33,8 km/h (5 Bft) 100,00 %
04.01.2016 00:30 -6,3 C 92 % 1001,8 hPa 0,0 l/m 25,7 km/h (4 Bft) O-NO 64 0 min 0,000 mm 0,0 UV-I 0 W/m -7,4 C -20,6 C 37,0 km/h (5 Bft) 99,09 %
04.01.2016 00:35 -6,3 C 92 % 1001,7 hPa 0,0 l/m 25,2 km/h (4 Bft) O-NO 71 0 min 0,000 mm 0,0 UV-I 0 W/m -7,4 C -20,3 C 38,6 km/h (5 Bft) 99,13 %
04.01.2016 00:40 -6,3 C 92 % 1001,5 hPa 0,0 l/m 26,4 km/h (4 Bft) O-NO 57 0 min 0,000 mm 0,0 UV-I 0 W/m -7,4 C -20,9 C 37,0 km/h (5 Bft) 98,46 %
04.01.2016 00:45 -6,3 C 92 % 1001,3 hPa 0,0 l/m 23,0 km/h (4 Bft) O-NO 68 0 min 0,000 mm 0,0 UV-I 0 W/m -7,4 C -19,3 C 30,6 km/h (5 Bft) 100,00 %
04.01.2016 00:50 -6,3 C 92 % 1001,2 hPa 0,0 l/m 22,4 km/h (4 Bft) O-NO 76 0 min 0,000 mm 0,0 UV-I 0 W/m -7,4 C -19,0 C 33,8 km/h (5 Bft) 97,17 %
04.01.2016 00:55 -6,3 C 92 % 1001,1 hPa 0,0 l/m 21,2 km/h (4 Bft) NO 45 0 min 0,000 mm 0,0 UV-I 0 W/m -7,4 C -18,4 C 30,6 km/h (5 Bft) 96,83 %
04.01.2016 01:00 -6,3 C 92 % 1001,2 hPa 0,0 l/m 19,1 km/h (3 Bft) O 80 0 min 0,000 mm 0,0 UV-I 0 W/m -7,4 C -17,3 C 27,4 km/h (4 Bft) 98,17 %
04.01.2016 01:05 -6,3 C 92 % 1001,0 hPa 0,0 l/m 17,6 km/h (3 Bft) O-NO 75 0 min 0,000 mm 0,0 UV-I 0 W/m -7,4 C -16,4 C 22,5 km/h (4 Bft) 96,69 %
04.01.2016 01:10 -6,3 C 92 % 1001,0 hPa 0,0 l/m 20,6 km/h (4 Bft) NO 44 0 min 0,000 mm 0,0 UV-I 0 W/m -7,4 C -18,1 C 32,2 km/h (5 Bft) 96,58 %
04.01.2016 01:15 -6,3 C 92 % 1000,8 hPa 0,0 l/m 16,9 km/h (3 Bft) O-NO 62 0 min 0,000 mm 0,0 UV-I 0 W/m -7,4 C -15,9 C 24,1 km/h (4 Bft) 97,25 %
04.01.2016 01:20 -6,3 C 92 % 1000,5 hPa 0,0 l/m 20,4 km/h (4 Bft) O-NO 77 0 min 0,000 mm 0,0 UV-I 0 W/m -7,4 C -18,0 C 27,4 km/h (4 Bft) 96,61 %
04.01.2016 01:25 -6,3 C 92 % 1000,4 hPa 0,0 l/m 18,6 km/h (3 Bft) O-NO 69 0 min 0,000 mm 0,0 UV-I 0 W/m -7,4 C -17,0 C 29,0 km/h (5 Bft) 100,00 %
04.01.2016 01:30 -6,3 C 92 % 1000,2 hPa 0,0 l/m 22,2 km/h (4 Bft) NO 47 0 min 0,000 mm 0,0 UV-I 0 W/m -7,4 C -18,9 C 32,2 km/h (5 Bft) 98,43 %
04.01.2016 01:35 -6,3 C 92 % 1000,0 hPa 0,0 l/m 21,7 km/h (4 Bft) NO 53 0 min 0,000 mm 0,0 UV-I 0 W/m -7,4 C -18,7 C 29,0 km/h (5 Bft) 99,15 %
04.01.2016 01:40 -6,3 C 92 % 999,9 hPa 0,0 l/m 19,5 km/h (3 Bft) NO 38 0 min 0,000 mm 0,0 UV-I 0 W/m -7,4 C -17,5 C 29,0 km/h (5 Bft) 100,00 %
04.01.2016 01:45 -6,3 C 92 % 999,9 hPa 0,0 l/m 21,5 km/h (4 Bft) O-NO 71 0 min 0,000 mm 0,0 UV-I 0 W/m -7,4 C -18,6 C 30,6 km/h (5 Bft) 98,26 %
04.01.2016 01:50 -6,3 C 92 % 999,8 hPa 0,0 l/m 18,3 km/h (3 Bft) O-NO 77 0 min 0,000 mm 0,0 UV-I 0 W/m -7,4 C -16,8 C 25,7 km/h (4 Bft) 98,41 %
04.01.2016 01:55 -6,2 C 92 % 999,8 hPa 0,0 l/m 20,2 km/h (4 Bft) O-NO 69 0 min 0,000 mm 0,0 UV-I 0 W/m -7,3 C -17,8 C 29,0 km/h (5 Bft) 100,00 %
04.01.2016 02:00 -6,2 C 92 % 999,8 hPa 0,0 l/m 19,3 km/h (3 Bft) O-NO 73 0 min 0,000 mm 0,0 UV-I 0 W/m -7,3 C -17,2 C 32,2 km/h (5 Bft) 100,00 %
04.01.2016 02:05 -6,2 C 92 % 999,7 hPa 0,0 l/m 16,1 km/h (3 Bft) O-NO 61 0 min 0,000 mm 0,0 UV-I 0 W/m -7,3 C -15,3 C 25,7 km/h (4 Bft) 98,29 %
04.01.2016 02:10 -6,2 C 92 % 999,5 hPa 0,0 l/m 19,4 km/h (3 Bft) O-NO 65 0 min 0,000 mm 0,0 UV-I 0 W/m -7,3 C -17,3 C 33,8 km/h (5 Bft) 100,00 %
04.01.2016 02:15 -6,2 C 91 % 999,5 hPa 0,0 l/m 19,3 km/h (3 Bft) O-NO 63 0 min 0,000 mm 0,0 UV-I 0 W/m -7,4 C -17,2 C 30,6 km/h (5 Bft) 100,00 %
04.01.2016 02:20 -6,2 C 92 % 999,3 hPa 0,0 l/m 17,0 km/h (3 Bft) O 80 0 min 0,000 mm 0,0 UV-I 0 W/m -7,3 C -15,9 C 24,1 km/h (4 Bft) 100,00 %
04.01.2016 02:25 -6,1 C 91 % 999,4 hPa 0,0 l/m 19,6 km/h (3 Bft) O 81 0 min 0,000 mm 0,0 UV-I 0 W/m -7,3 C -17,3 C 29,0 km/h (5 Bft) 99,19 %
04.01.2016 02:30 -6,1 C 91 % 999,4 hPa 0,0 l/m 15,7 km/h (3 Bft) O-NO 61 0 min 0,000 mm 0,0 UV-I 0 W/m -7,3 C -14,9 C 24,1 km/h (4 Bft) 100,00 %
04.01.2016 02:35 -6,1 C 91 % 999,2 hPa 0,0 l/m 16,1 km/h (3 Bft) NO 46 0 min 0,000 mm 0,0 UV-I 0 W/m -7,3 C -15,1 C 22,5 km/h (4 Bft) 99,19 %
04.01.2016 02:40 -6,1 C 91 % 999,3 hPa 0,0 l/m 14,9 km/h (3 Bft) O-NO 69 0 min 0,000 mm 0,0 UV-I 0 W/m -7,3 C -14,3 C 22,5 km/h (4 Bft) 99,13 %
04.01.2016 02:45 -6,1 C 91 % 999,0 hPa 0,0 l/m 17,4 km/h (3 Bft) O-NO 57 0 min 0,000 mm 0,0 UV-I 0 W/m -7,3 C -16,0 C 25,7 km/h (4 Bft) 99,09 %
04.01.2016 02:50 -6,0 C 91 % 998,9 hPa 0,0 l/m 18,1 km/h (3 Bft) O-NO 57 0 min 0,000 mm 0,0 UV-I 0 W/m -7,2 C -16,3 C 27,4 km/h (4 Bft) 100,00 %
04.01.2016 02:55 -6,0 C 91 % 998,8 hPa 0,0 l/m 17,2 km/h (3 Bft) O-NO 59 0 min 0,000 mm 0,0 UV-I 0 W/m -7,2 C -15,7 C 25,7 km/h (4 Bft) 97,73 %
04.01.2016 03:00 -6,0 C 91 % 998,6 hPa 0,0 l/m 17,5 km/h (3 Bft) NO 55 0 min 0,000 mm 0,0 UV-I 0 W/m -7,2 C -15,9 C 30,6 km/h (5 Bft) 98,21 %
04.01.2016 03:05 -6,0 C 91 % 998,6 hPa 0,0 l/m 18,4 km/h (3 Bft) O-NO 67 0 min 0,000 mm 0,0 UV-I 0 W/m -7,2 C -16,5 C 27,4 km/h (4 Bft) 97,46 %
04.01.2016 03:10 -5,9 C 91 % 998,6 hPa 0,0 l/m 19,2 km/h (3 Bft) O-NO 74 0 min 0,000 mm 0,0 UV-I 0 W/m -7,1 C -16,8 C 27,4 km/h (4 Bft) 96,49 %
04.01.2016 03:15 -5,9 C 91 % 998,5 hPa 0,0 l/m 18,2 km/h (3 Bft) NO 55 0 min 0,000 mm 0,0 UV-I 0 W/m -7,1 C -16,2 C 25,7 km/h (4 Bft) 96,75 %
04.01.2016 03:20 -5,9 C 92 % 998,6 hPa 0,0 l/m 14,0 km/h (3 Bft) O-NO 71 0 min 0,000 mm 0,0 UV-I 0 W/m -7,0 C -13,4 C 20,9 km/h (4 Bft) 98,17 %
04.01.2016 03:25 -5,9 C 92 % 998,5 hPa 0,0 l/m 12,8 km/h (3 Bft) O-NO 74 0 min 0,000 mm 0,0 UV-I 0 W/m -7,0 C -12,5 C 22,5 km/h (4 Bft) 95,12 %
04.01.2016 03:30 -5,9 C 91 % 998,4 hPa 0,0 l/m 13,6 km/h (3 Bft) O-NO 72 0 min 0,000 mm 0,0 UV-I 0 W/m -7,1 C -13,1 C 19,3 km/h (3 Bft) 99,15 %
04.01.2016 03:35 -5,8 C 91 % 998,3 hPa 0,0 l/m 16,6 km/h (3 Bft) O 80 0 min 0,000 mm 0,0 UV-I 0 W/m -7,0 C -15,1 C 24,1 km/h (4 Bft) 96,58 %
04.01.2016 03:40 -5,8 C 91 % 998,3 hPa 0,0 l/m 15,8 km/h (3 Bft) NO 49 0 min 0,000 mm 0,0 UV-I 0 W/m -7,0 C -14,6 C 22,5 km/h (4 Bft) 99,17 %
04.01.2016 03:45 -5,8 C 91 % 998,0 hPa 0,0 l/m 16,7 km/h (3 Bft) NO 53 0 min 0,000 mm 0,0 UV-I 0 W/m -7,0 C -15,2 C 22,5 km/h (4 Bft) 99,11 %
04.01.2016 03:50 -5,8 C 91 % 997,9 hPa 0,0 l/m 17,7 km/h (3 Bft) O-NO 74 0 min 0,000 mm 0,0 UV-I 0 W/m -7,0 C -15,8 C 27,4 km/h (4 Bft) 100,00 %
04.01.2016 03:55 -5,8 C 91 % 998,0 hPa 0,0 l/m 16,9 km/h (3 Bft) O 79 0 min 0,000 mm 0,0 UV-I 0 W/m -7,0 C -15,3 C 24,1 km/h (4 Bft) 100,00 %
04.01.2016 04:00 -5,7 C 91 % 998,0 hPa 0,0 l/m 14,0 km/h (3 Bft) O-NO 66 0 min 0,000 mm 0,0 UV-I 0 W/m -6,9 C -13,2 C 22,5 km/h (4 Bft) 99,13 %
04.01.2016 04:05 -5,7 C 91 % 998,0 hPa 0,0 l/m 15,4 km/h (3 Bft) NO 56 0 min 0,000 mm 0,0 UV-I 0 W/m -6,9 C -14,2 C 22,5 km/h (4 Bft) 97,96 %
04.01.2016 04:10 -5,7 C 91 % 997,8 hPa 0,0 l/m 14,7 km/h (3 Bft) O-NO 65 0 min 0,000 mm 0,0 UV-I 0 W/m -6,9 C -13,7 C 24,1 km/h (4 Bft) 98,26 %
04.01.2016 04:15 -5,7 C 91 % 997,8 hPa 0,0 l/m 15,0 km/h (3 Bft) O-NO 62 0 min 0,000 mm 0,0 UV-I 0 W/m -6,9 C -13,9 C 24,1 km/h (4 Bft) 99,15 %
04.01.2016 04:20 -5,7 C 91 % 997,7 hPa 0,0 l/m 15,2 km/h (3 Bft) O-NO 75 0 min 0,000 mm 0,0 UV-I 0 W/m -6,9 C -14,0 C 20,9 km/h (4 Bft) 99,13 %
04.01.2016 04:25 -5,7 C 91 % 997,7 hPa 0,0 l/m 15,1 km/h (3 Bft) NO 43 0 min 0,000 mm 0,0 UV-I 0 W/m -6,9 C -14,0 C 24,1 km/h (4 Bft) 100,00 %
04.01.2016 04:30 -5,6 C 91 % 997,6 hPa 0,0 l/m 15,0 km/h (3 Bft) O-NO 71 0 min 0,000 mm 0,0 UV-I 0 W/m -6,8 C -13,8 C 20,9 km/h (4 Bft) 100,00 %
04.01.2016 04:35 -5,6 C 91 % 997,5 hPa 0,0 l/m 15,6 km/h (3 Bft) O-NO 62 0 min 0,000 mm 0,0 UV-I 0 W/m -6,8 C -14,2 C 27,4 km/h (4 Bft) 100,00 %
04.01.2016 04:40 -5,6 C 91 % 997,5 hPa 0,0 l/m 12,5 km/h (3 Bft) O-NO 59 0 min 0,000 mm 0,0 UV-I 0 W/m -6,8 C -11,9 C 20,9 km/h (4 Bft) 100,00 %
04.01.2016 04:45 -5,6 C 91 % 997,4 hPa 0,0 l/m 14,8 km/h (3 Bft) O-NO 68 0 min 0,000 mm 0,0 UV-I 0 W/m -6,8 C -13,6 C 22,5 km/h (4 Bft) 99,12 %
04.01.2016 04:50 -5,6 C 91 % 997,5 hPa 0,0 l/m 15,7 km/h (3 Bft) O-NO 73 0 min 0,000 mm 0,0 UV-I 0 W/m -6,8 C -14,3 C 22,5 km/h (4 Bft) 99,17 %
04.01.2016 04:55 -5,6 C 91 % 997,5 hPa 0,0 l/m 13,8 km/h (3 Bft) O 83 0 min 0,000 mm 0,0 UV-I 0 W/m -6,8 C -12,9 C 22,5 km/h (4 Bft) 98,41 %
04.01.2016 05:00 -5,6 C 91 % 997,6 hPa 0,0 l/m 12,9 km/h (3 Bft) O-NO 73 0 min 0,000 mm 0,0 UV-I 0 W/m -6,8 C -12,2 C 20,9 km/h (4 Bft) 97,46 %
04.01.2016 05:05 -5,6 C 91 % 997,6 hPa 0,0 l/m 12,9 km/h (3 Bft) O-NO 77 0 min 0,000 mm 0,0 UV-I 0 W/m -6,8 C -12,2 C 19,3 km/h (3 Bft) 97,39 %
04.01.2016 05:10 -5,6 C 91 % 997,5 hPa 0,0 l/m 14,8 km/h (3 Bft) O-NO 74 0 min 0,000 mm 0,0 UV-I 0 W/m -6,8 C -13,6 C 20,9 km/h (4 Bft) 96,58 %
04.01.2016 05:15 -5,5 C 91 % 997,4 hPa 0,0 l/m 12,4 km/h (3 Bft) O 85 0 min 0,000 mm 0,0 UV-I 0 W/m -6,7 C -11,7 C 19,3 km/h (3 Bft) 96,52 %
04.01.2016 05:20 -5,5 C 91 % 997,5 hPa 0,0 l/m 13,9 km/h (3 Bft) O-NO 64 0 min 0,000 mm 0,0 UV-I 0 W/m -6,7 C -12,8 C 19,3 km/h (3 Bft) 95,00 %
04.01.2016 05:25 -5,5 C 91 % 997,5 hPa 0,0 l/m 12,7 km/h (3 Bft) O-NO 72 0 min 0,000 mm 0,0 UV-I 0 W/m -6,7 C -11,9 C 19,3 km/h (3 Bft) 97,32 %
04.01.2016 05:30 -5,5 C 91 % 997,5 hPa 0,0 l/m 9,7 km/h (2 Bft) O-NO 57 0 min 0,000 mm 0,0 UV-I 0 W/m -6,7 C -9,2 C 16,1 km/h (3 Bft) 96,52 %
04.01.2016 05:35 -5,5 C 91 % 997,5 hPa 0,0 l/m 9,6 km/h (2 Bft) O-NO 62 0 min 0,000 mm 0,0 UV-I 0 W/m -6,7 C -9,1 C 17,7 km/h (3 Bft) 97,50 %
04.01.2016 05:40 -5,5 C 91 % 997,4 hPa 0,0 l/m 13,0 km/h (3 Bft) NO 55 0 min 0,000 mm 0,0 UV-I 0 W/m -6,7 C -12,2 C 17,7 km/h (3 Bft) 97,25 %
04.01.2016 05:45 -5,5 C 91 % 997,3 hPa 0,0 l/m 13,6 km/h (3 Bft) O-NO 69 0 min 0,000 mm 0,0 UV-I 0 W/m -6,7 C -12,6 C 22,5 km/h (4 Bft) 98,39 %
04.01.2016 05:50 -5,6 C 91 % 997,3 hPa 0,0 l/m 13,1 km/h (3 Bft) O-NO 71 0 min 0,000 mm 0,0 UV-I 0 W/m -6,8 C -12,3 C 19,3 km/h (3 Bft) 97,44 %
04.01.2016 05:55 -5,5 C 91 % 997,3 hPa 0,0 l/m 13,8 km/h (3 Bft) O-NO 61 0 min 0,000 mm 0,0 UV-I 0 W/m -6,7 C -12,8 C 22,5 km/h (4 Bft) 98,39 %
04.01.2016 06:00 -5,5 C 91 % 997,4 hPa 0,0 l/m 12,4 km/h (3 Bft) O-NO 76 0 min 0,000 mm 0,0 UV-I 0 W/m -6,7 C -11,7 C 19,3 km/h (3 Bft) 100,00 %
04.01.2016 06:05 -5,4 C 91 % 997,4 hPa 0,0 l/m 11,1 km/h (2 Bft) O 96 0 min 0,000 mm 0,0 UV-I 0 W/m -6,6 C -10,4 C 17,7 km/h (3 Bft) 99,15 %
04.01.2016 06:10 -5,4 C 90 % 997,4 hPa 0,0 l/m 14,7 km/h (3 Bft) O-NO 69 0 min 0,000 mm 0,0 UV-I 0 W/m -6,8 C -13,3 C 22,5 km/h (4 Bft) 99,13 %
04.01.2016 06:15 -5,4 C 91 % 997,3 hPa 0,0 l/m 12,8 km/h (3 Bft) O 86 0 min 0,000 mm 0,0 UV-I 0 W/m -6,6 C -11,9 C 19,3 km/h (3 Bft) 98,29 %
04.01.2016 06:20 -5,4 C 91 % 997,2 hPa 0,0 l/m 12,6 km/h (3 Bft) O-NO 71 0 min 0,000 mm 0,0 UV-I 0 W/m -6,6 C -11,7 C 20,9 km/h (4 Bft) 99,15 %
04.01.2016 06:25 -5,4 C 91 % 997,3 hPa 0,0 l/m 14,7 km/h (3 Bft) NO 54 0 min 0,000 mm 0,0 UV-I 0 W/m -6,6 C -13,3 C 24,1 km/h (4 Bft) 97,52 %
04.01.2016 06:30 -5,4 C 90 % 997,2 hPa 0,0 l/m 13,4 km/h (3 Bft) NO 48 0 min 0,000 mm 0,0 UV-I 0 W/m -6,8 C -12,3 C 19,3 km/h (3 Bft) 98,29 %
04.01.2016 06:35 -5,4 C 91 % 997,4 hPa 0,0 l/m 10,5 km/h (2 Bft) O-SO 104 0 min 0,000 mm 0,0 UV-I 0 W/m -6,6 C -9,9 C 17,7 km/h (3 Bft) 100,00 %
04.01.2016 06:40 -5,4 C 90 % 997,6 hPa 0,0 l/m 7,3 km/h (2 Bft) O 87 0 min 0,000 mm 0,0 UV-I 0 W/m -6,8 C -6,5 C 12,9 km/h (3 Bft) 99,11 %
04.01.2016 06:45 -5,4 C 90 % 997,7 hPa 0,0 l/m 6,0 km/h (2 Bft) O-SO 104 0 min 0,000 mm 0,0 UV-I 0 W/m -6,8 C -5,4 C 11,3 km/h (2 Bft) 99,15 %
04.01.2016 06:50 -5,4 C 90 % 997,6 hPa 0,0 l/m 6,0 km/h (2 Bft) O-NO 60 0 min 0,000 mm 0,0 UV-I 0 W/m -6,8 C -5,4 C 12,9 km/h (3 Bft) 97,52 %
04.01.2016 06:55 -5,4 C 90 % 997,7 hPa 0,0 l/m 8,0 km/h (2 Bft) O-NO 63 0 min 0,000 mm 0,0 UV-I 0 W/m -6,8 C -7,3 C 16,1 km/h (3 Bft) 99,17 %
04.01.2016 07:00 -5,3 C 90 % 997,6 hPa 0,0 l/m 8,7 km/h (2 Bft) O-NO 60 0 min 0,000 mm 0,0 UV-I 0 W/m -6,7 C -8,0 C 17,7 km/h (3 Bft) 97,46 %
04.01.2016 07:05 -5,3 C 90 % 997,8 hPa 0,0 l/m 9,3 km/h (2 Bft) O 80 0 min 0,000 mm 0,0 UV-I 0 W/m -6,7 C -8,6 C 17,7 km/h (3 Bft) 97,46 %
04.01.2016 07:10 -5,3 C 90 % 997,7 hPa 0,0 l/m 5,2 km/h (1 Bft) O 79 0 min 0,000 mm 0,0 UV-I 0 W/m -6,7 C -5,3 C 14,5 km/h (3 Bft) 97,22 %
04.01.2016 07:15 -5,2 C 90 % 997,7 hPa 0,0 l/m 10,5 km/h (2 Bft) O 86 0 min 0,000 mm 0,0 UV-I 0 W/m -6,6 C -9,7 C 16,1 km/h (3 Bft) 95,76 %
04.01.2016 07:20 -5,2 C 90 % 997,6 hPa 0,0 l/m 9,8 km/h (2 Bft) O-SO 115 0 min 0,000 mm 0,0 UV-I 0 W/m -6,6 C -9,0 C 16,1 km/h (3 Bft) 98,35 %
04.01.2016 07:25 -5,2 C 90 % 997,5 hPa 0,0 l/m 10,0 km/h (2 Bft) O-NO 71 0 min 0,000 mm 0,0 UV-I 0 W/m -6,6 C -9,2 C 20,9 km/h (4 Bft) 96,67 %
04.01.2016 07:30 -5,2 C 90 % 997,3 hPa 0,0 l/m 15,2 km/h (3 Bft) O 94 0 min 0,000 mm 0,0 UV-I 0 W/m -6,6 C -13,4 C 25,7 km/h (4 Bft) 95,76 %
04.01.2016 07:35 -5,2 C 90 % 997,2 hPa 0,0 l/m 18,8 km/h (3 Bft) O-NO 76 0 min 0,000 mm 0,0 UV-I 0 W/m -6,6 C -15,7 C 25,7 km/h (4 Bft) 96,58 %
04.01.2016 07:40 -5,2 C 90 % 997,3 hPa 0,0 l/m 14,9 km/h (3 Bft) O-NO 78 0 min 0,000 mm 0,0 UV-I 0 W/m -6,6 C -13,2 C 27,4 km/h (4 Bft) 98,26 %
04.01.2016 07:45 -5,2 C 90 % 997,4 hPa 0,0 l/m 15,0 km/h (3 Bft) O 84 0 min 0,000 mm 0,0 UV-I 0 W/m -6,6 C -13,3 C 27,4 km/h (4 Bft) 98,31 %
04.01.2016 07:50 -5,2 C 90 % 997,4 hPa 0,0 l/m 16,5 km/h (3 Bft) O 94 0 min 0,000 mm 0,0 UV-I 0 W/m -6,6 C -14,3 C 25,7 km/h (4 Bft) 100,00 %
04.01.2016 07:55 -5,2 C 90 % 997,3 hPa 0,0 l/m 16,0 km/h (3 Bft) O-NO 77 0 min 0,000 mm 0,0 UV-I 0 W/m -6,6 C -14,0 C 25,7 km/h (4 Bft) 97,52 %
04.01.2016 08:00 -5,2 C 90 % 997,3 hPa 0,0 l/m 14,6 km/h (3 Bft) O-NO 71 0 min 0,000 mm 0,0 UV-I 0 W/m -6,6 C -13,0 C 22,5 km/h (4 Bft) 97,50 %
04.01.2016 08:05 -5,2 C 91 % 997,3 hPa 0,0 l/m 17,1 km/h (3 Bft) O 82 0 min 0,000 mm 0,0 UV-I 0 W/m -6,4 C -14,7 C 25,7 km/h (4 Bft) 99,08 %
04.01.2016 08:10 -5,2 C 91 % 997,3 hPa 0,0 l/m 17,7 km/h (3 Bft) NO 46 0 min 0,000 mm 0,0 UV-I 0 W/m -6,4 C -15,0 C 25,7 km/h (4 Bft) 100,00 %
04.01.2016 08:15 -5,2 C 91 % 997,3 hPa 0,0 l/m 19,3 km/h (3 Bft) NO 44 0 min 0,000 mm 0,0 UV-I 5 W/m -6,4 C -16,0 C 27,4 km/h (4 Bft) 100,00 %
04.01.2016 08:20 -5,3 C 91 % 997,2 hPa 0,0 l/m 18,0 km/h (3 Bft) O-NO 78 0 min 0,000 mm 0,0 UV-I 6 W/m -6,5 C -15,3 C 27,4 km/h (4 Bft) 100,00 %
04.01.2016 08:25 -5,2 C 91 % 997,2 hPa 0,0 l/m 17,3 km/h (3 Bft) O-NO 74 0 min 0,000 mm 0,0 UV-I 8 W/m -6,4 C -14,8 C 24,1 km/h (4 Bft) 99,17 %
04.01.2016 08:30 -5,2 C 91 % 997,2 hPa 0,0 l/m 18,7 km/h (3 Bft) NO 49 0 min 0,000 mm 0,0 UV-I 11 W/m -6,4 C -15,6 C 25,7 km/h (4 Bft) 100,00 %
04.01.2016 08:35 -5,2 C 91 % 997,0 hPa 0,0 l/m 17,9 km/h (3 Bft) O 82 0 min 0,000 mm 0,0 UV-I 14 W/m -6,4 C -15,2 C 27,4 km/h (4 Bft) 98,31 %
04.01.2016 08:40 -5,2 C 91 % 997,1 hPa 0,0 l/m 17,7 km/h (3 Bft) O-NO 63 0 min 0,000 mm 0,0 UV-I 17 W/m -6,4 C -15,0 C 25,7 km/h (4 Bft) 99,19 %
04.01.2016 08:45 -5,2 C 91 % 997,2 hPa 0,0 l/m 16,8 km/h (3 Bft) O-NO 64 0 min 0,000 mm 0,0 UV-I 23 W/m -6,4 C -14,5 C 27,4 km/h (4 Bft) 99,08 %
04.01.2016 08:50 -5,2 C 91 % 997,2 hPa 0,0 l/m 16,6 km/h (3 Bft) O 87 0 min 0,000 mm 0,0 UV-I 27 W/m -6,4 C -14,4 C 22,5 km/h (4 Bft) 99,15 %
04.01.2016 08:55 -5,1 C 91 % 997,4 hPa 0,0 l/m 15,0 km/h (3 Bft) O 89 0 min 0,000 mm 0,0 UV-I 30 W/m -6,3 C -13,2 C 24,1 km/h (4 Bft) 98,33 %
04.01.2016 09:00 -5,1 C 91 % 997,4 hPa 0,0 l/m 15,9 km/h (3 Bft) O 93 0 min 0,000 mm 0,0 UV-I 31 W/m -6,3 C -13,8 C 24,1 km/h (4 Bft) 97,46 %
04.01.2016 09:05 -5,1 C 91 % 997,3 hPa 0,0 l/m 16,7 km/h (3 Bft) O-NO 65 0 min 0,000 mm 0,0 UV-I 26 W/m -6,3 C -14,3 C 24,1 km/h (4 Bft) 97,46 %
04.01.2016 09:10 -5,1 C 91 % 997,3 hPa 0,0 l/m 15,1 km/h (3 Bft) O-NO 58 0 min 0,000 mm 0,0 UV-I 29 W/m -6,3 C -13,2 C 24,1 km/h (4 Bft) 95,83 %
04.01.2016 09:15 -5,0 C 91 % 997,4 hPa 0,0 l/m 12,8 km/h (3 Bft) O-SO 113 0 min 0,000 mm 0,0 UV-I 38 W/m -6,2 C -11,4 C 24,1 km/h (4 Bft) 95,76 %
04.01.2016 09:20 -4,9 C 91 % 997,3 hPa 0,0 l/m 9,7 km/h (2 Bft) O-NO 61 0 min 0,000 mm 0,0 UV-I 48 W/m -6,1 C -8,6 C 17,7 km/h (3 Bft) 97,17 %
04.01.2016 09:25 -4,9 C 91 % 997,2 hPa 0,0 l/m 12,2 km/h (2 Bft) O-NO 67 0 min 0,000 mm 0,0 UV-I 55 W/m -6,1 C -10,8 C 17,7 km/h (3 Bft) 95,93 %
04.01.2016 09:30 -5,0 C 91 % 997,4 hPa 0,0 l/m 11,6 km/h (2 Bft) O 96 0 min 0,000 mm 0,0 UV-I 44 W/m -6,2 C -10,4 C 19,3 km/h (3 Bft) 96,69 %
04.01.2016 09:35 -5,0 C 91 % 997,4 hPa 0,0 l/m 10,4 km/h (2 Bft) O 101 0 min 0,000 mm 0,0 UV-I 34 W/m -6,2 C -9,4 C 20,9 km/h (4 Bft) 96,67 %
04.01.2016 09:40 -5,0 C 91 % 997,4 hPa 0,0 l/m 13,0 km/h (3 Bft) O 81 0 min 0,000 mm 0,0 UV-I 33 W/m -6,2 C -11,6 C 20,9 km/h (4 Bft) 97,25 %
04.01.2016 09:45 -5,0 C 91 % 997,4 hPa 0,0 l/m 11,1 km/h (2 Bft) O-NO 61 0 min 0,000 mm 0,0 UV-I 39 W/m -6,2 C -10,0 C 19,3 km/h (3 Bft) 98,31 %
04.01.2016 09:50 -5,1 C 91 % 997,3 hPa 0,0 l/m 16,6 km/h (3 Bft) O-NO 78 0 min 0,000 mm 0,0 UV-I 37 W/m -6,3 C -14,2 C 22,5 km/h (4 Bft) 97,44 %
04.01.2016 09:55 -5,1 C 91 % 997,4 hPa 0,0 l/m 15,0 km/h (3 Bft) O-NO 67 0 min 0,000 mm 0,0 UV-I 44 W/m -6,3 C -13,2 C 24,1 km/h (4 Bft) 100,00 %
04.01.2016 10:00 -5,1 C 92 % 997,4 hPa 0,0 l/m 12,6 km/h (3 Bft) O 101 0 min 0,025 mm 0,0 UV-I 64 W/m -6,2 C -11,4 C 20,9 km/h (4 Bft) 99,06 %
04.01.2016 10:05 -5,1 C 92 % 997,5 hPa 0,0 l/m 12,8 km/h (3 Bft) O 90 0 min 0,000 mm 0,0 UV-I 69 W/m -6,2 C -11,5 C 19,3 km/h (3 Bft) 99,20 %
04.01.2016 10:10 -5,0 C 92 % 997,5 hPa 0,0 l/m 9,6 km/h (2 Bft) O-NO 72 0 min 0,000 mm 0,0 UV-I 71 W/m -6,1 C -8,6 C 16,1 km/h (3 Bft) 100,00 %
04.01.2016 10:15 -5,0 C 92 % 997,4 hPa 0,0 l/m 10,5 km/h (2 Bft) O 79 0 min 0,000 mm 0,0 UV-I 71 W/m -6,1 C -9,4 C 16,1 km/h (3 Bft) 96,30 %
04.01.2016 10:20 -4,9 C 92 % 997,5 hPa 0,0 l/m 10,9 km/h (2 Bft) O 81 0 min 0,000 mm 0,0 UV-I 70 W/m -6,0 C -9,7 C 19,3 km/h (3 Bft) 96,61 %
04.01.2016 10:25 -4,9 C 92 % 997,5 hPa 0,0 l/m 9,9 km/h (2 Bft) O-NO 67 0 min 0,000 mm 0,0 UV-I 71 W/m -6,0 C -8,8 C 14,5 km/h (3 Bft) 100,00 %
04.01.2016 10:30 -4,9 C 92 % 997,4 hPa 0,0 l/m 4,4 km/h (1 Bft) O-NO 66 0 min 0,000 mm 0,0 UV-I 68 W/m -6,0 C -4,9 C 11,3 km/h (2 Bft) 98,29 %
04.01.2016 10:35 -4,9 C 92 % 997,6 hPa 0,0 l/m 7,4 km/h (2 Bft) O-NO 61 0 min 0,000 mm 0,0 UV-I 76 W/m -6,0 C -6,1 C 12,9 km/h (3 Bft) 99,15 %
04.01.2016 10:40 -4,9 C 92 % 997,5 hPa 0,0 l/m 9,0 km/h (2 Bft) O-NO 73 0 min 0,000 mm 0,0 UV-I 70 W/m -6,0 C -7,9 C 12,9 km/h (3 Bft) 100,00 %
04.01.2016 10:45 -4,9 C 92 % 997,4 hPa 0,0 l/m 7,2 km/h (2 Bft) O-NO 57 0 min 0,000 mm 0,0 UV-I 58 W/m -6,0 C -5,9 C 16,1 km/h (3 Bft) 98,31 %
04.01.2016 10:50 -4,9 C 92 % 997,5 hPa 0,0 l/m 6,2 km/h (2 Bft) O-NO 76 0 min 0,000 mm 0,0 UV-I 56 W/m -6,0 C -4,9 C 14,5 km/h (3 Bft) 100,00 %
04.01.2016 10:55 -4,9 C 93 % 997,4 hPa 0,0 l/m 10,0 km/h (2 Bft) NO 55 0 min 0,000 mm 0,0 UV-I 72 W/m -5,9 C -8,9 C 14,5 km/h (3 Bft) 100,00 %
04.01.2016 11:00 -4,9 C 93 % 997,2 hPa 0,0 l/m 7,3 km/h (2 Bft) O-NO 62 0 min 0,026 mm 0,0 UV-I 83 W/m -5,9 C -6,0 C 17,7 km/h (3 Bft) 100,00 %
04.01.2016 11:05 -4,9 C 92 % 997,4 hPa 0,0 l/m 6,4 km/h (2 Bft) NO 50 0 min 0,000 mm 0,0 UV-I 86 W/m -6,0 C -4,8 C 14,5 km/h (3 Bft) 96,61 %
04.01.2016 11:10 -4,9 C 92 % 997,3 hPa 0,0 l/m 9,6 km/h (2 Bft) O-NO 62 0 min 0,000 mm 0,0 UV-I 87 W/m -6,0 C -8,5 C 16,1 km/h (3 Bft) 97,30 %
04.01.2016 11:15 -4,9 C 93 % 997,4 hPa 0,0 l/m 6,2 km/h (2 Bft) NO 36 0 min 0,000 mm 0,0 UV-I 74 W/m -5,9 C -4,9 C 9,7 km/h (2 Bft) 98,31 %
04.01.2016 11:20 -4,9 C 93 % 997,3 hPa 0,0 l/m 6,9 km/h (2 Bft) O-NO 60 0 min 0,000 mm 0,0 UV-I 76 W/m -5,9 C -5,5 C 11,3 km/h (2 Bft) 97,46 %
04.01.2016 11:25 -4,9 C 93 % 997,1 hPa 0,0 l/m 6,8 km/h (2 Bft) NO 47 0 min 0,000 mm 0,0 UV-I 58 W/m -5,9 C -5,4 C 14,5 km/h (3 Bft) 95,73 %
04.01.2016 11:30 -4,9 C 93 % 997,1 hPa 0,0 l/m 7,4 km/h (2 Bft) NO 53 0 min 0,000 mm 0,0 UV-I 51 W/m -5,9 C -6,1 C 14,5 km/h (3 Bft) 96,61 %
04.01.2016 11:35 -5,0 C 93 % 997,1 hPa 0,0 l/m 10,1 km/h (2 Bft) O-NO 76 0 min 0,000 mm 0,0 UV-I 57 W/m -6,0 C -9,1 C 16,1 km/h (3 Bft) 95,83 %
04.01.2016 11:40 -5,0 C 93 % 997,0 hPa 0,0 l/m 12,6 km/h (3 Bft) O-NO 60 0 min 0,000 mm 0,0 UV-I 48 W/m -6,0 C -11,2 C 17,7 km/h (3 Bft) 98,35 %
04.01.2016 11:45 -5,0 C 93 % 996,8 hPa 0,0 l/m 8,8 km/h (2 Bft) NO 41 0 min 0,000 mm 0,0 UV-I 63 W/m -6,0 C -7,8 C 17,7 km/h (3 Bft) 98,17 %
04.01.2016 11:50 -5,0 C 93 % 996,8 hPa 0,0 l/m 10,5 km/h (2 Bft) O-NO 57 0 min 0,000 mm 0,0 UV-I 77 W/m -6,0 C -9,4 C 16,1 km/h (3 Bft) 100,00 %
04.01.2016 11:55 -4,9 C 93 % 996,9 hPa 0,0 l/m 11,2 km/h (2 Bft) O-NO 65 0 min 0,000 mm 0,0 UV-I 101 W/m -5,9 C -10,0 C 17,7 km/h (3 Bft) 97,64 %
04.01.2016 12:00 -4,8 C 93 % 996,9 hPa 0,0 l/m 9,0 km/h (2 Bft) O-NO 69 0 min 0,025 mm 0,0 UV-I 92 W/m -5,8 C -7,8 C 16,1 km/h (3 Bft) 95,41 %
04.01.2016 12:05 -4,8 C 92 % 996,9 hPa 0,0 l/m 11,3 km/h (2 Bft) O-NO 73 0 min 0,000 mm 0,0 UV-I 98 W/m -5,9 C -9,9 C 16,1 km/h (3 Bft) 98,29 %
04.01.2016 12:10 -4,7 C 92 % 996,6 hPa 0,0 l/m 10,8 km/h (2 Bft) O 90 0 min 0,000 mm 0,0 UV-I 122 W/m -5,8 C -9,4 C 17,7 km/h (3 Bft) 100,00 %
04.01.2016 12:15 -4,7 C 91 % 996,7 hPa 0,0 l/m 12,7 km/h (3 Bft) O-NO 65 0 min 0,000 mm 0,0 UV-I 132 W/m -5,9 C -11,0 C 19,3 km/h (3 Bft) 99,15 %
04.01.2016 12:20 -4,7 C 91 % 996,7 hPa 0,0 l/m 13,2 km/h (3 Bft) O-NO 63 0 min 0,000 mm 0,0 UV-I 117 W/m -5,9 C -11,4 C 19,3 km/h (3 Bft) 98,35 %
04.01.2016 12:25 -4,6 C 91 % 996,6 hPa 0,0 l/m 11,8 km/h (2 Bft) O-NO 62 0 min 0,000 mm 0,0 UV-I 124 W/m -5,8 C -10,1 C 17,7 km/h (3 Bft) 99,11 %
04.01.2016 12:30 -4,6 C 91 % 996,5 hPa 0,0 l/m 13,5 km/h (3 Bft) O-NO 67 0 min 0,000 mm 0,0 UV-I 144 W/m -5,8 C -11,5 C 19,3 km/h (3 Bft) 98,33 %
04.01.2016 12:35 -4,5 C 91 % 996,4 hPa 0,0 l/m 12,0 km/h (2 Bft) O-NO 67 0 min 0,000 mm 0,0 UV-I 175 W/m -5,7 C -10,2 C 19,3 km/h (3 Bft) 98,31 %
04.01.2016 12:40 -4,4 C 91 % 996,5 hPa 0,0 l/m 13,7 km/h (3 Bft) NO 35 5 min 0,000 mm 0,0 UV-I 184 W/m -5,6 C -11,4 C 22,5 km/h (4 Bft) 99,12 %
04.01.2016 12:45 -4,4 C 91 % 996,4 hPa 0,0 l/m 11,2 km/h (2 Bft) NO 55 5 min 0,000 mm 0,0 UV-I 182 W/m -5,6 C -9,4 C 17,7 km/h (3 Bft) 99,18 %
04.01.2016 12:50 -4,4 C 91 % 996,1 hPa 0,0 l/m 13,5 km/h (3 Bft) NO 56 0 min 0,000 mm 0,0 UV-I 165 W/m -5,6 C -11,2 C 19,3 km/h (3 Bft) 98,20 %
04.01.2016 12:55 -4,4 C 91 % 996,2 hPa 0,0 l/m 13,4 km/h (3 Bft) O-NO 78 0 min 0,000 mm 0,0 UV-I 146 W/m -5,6 C -11,2 C 19,3 km/h (3 Bft) 100,00 %
04.01.2016 13:00 -4,4 C 91 % 996,2 hPa 0,0 l/m 12,4 km/h (3 Bft) O-NO 59 0 min 0,051 mm 0,0 UV-I 114 W/m -5,6 C -10,4 C 19,3 km/h (3 Bft) 98,31 %
04.01.2016 13:05 -4,4 C 92 % 996,3 hPa 0,0 l/m 10,0 km/h (2 Bft) O-NO 69 0 min 0,000 mm 0,0 UV-I 102 W/m -5,5 C -8,3 C 16,1 km/h (3 Bft) 96,23 %
04.01.2016 13:10 -4,3 C 91 % 996,2 hPa 0,0 l/m 8,3 km/h (2 Bft) NO 44 0 min 0,000 mm 0,0 UV-I 116 W/m -5,5 C -6,5 C 14,5 km/h (3 Bft) 96,67 %
04.01.2016 13:15 -4,3 C 91 % 996,2 hPa 0,0 l/m 9,3 km/h (2 Bft) O-NO 61 0 min 0,000 mm 0,0 UV-I 111 W/m -5,5 C -7,5 C 16,1 km/h (3 Bft) 98,31 %
04.01.2016 13:20 -4,3 C 91 % 996,2 hPa 0,0 l/m 9,9 km/h (2 Bft) O-NO 69 0 min 0,000 mm 0,0 UV-I 105 W/m -5,5 C -8,1 C 14,5 km/h (3 Bft) 96,61 %
04.01.2016 13:25 -4,3 C 92 % 996,2 hPa 0,0 l/m 8,0 km/h (2 Bft) NO 51 0 min 0,000 mm 0,0 UV-I 92 W/m -5,4 C -6,2 C 14,5 km/h (3 Bft) 96,67 %
04.01.2016 13:30 -4,3 C 92 % 996,2 hPa 0,0 l/m 9,2 km/h (2 Bft) O 83 0 min 0,000 mm 0,0 UV-I 79 W/m -5,4 C -7,4 C 14,5 km/h (3 Bft) 97,52 %
04.01.2016 13:35 -4,4 C 91 % 996,3 hPa 0,0 l/m 9,1 km/h (2 Bft) NO 37 0 min 0,000 mm 0,0 UV-I 95 W/m -5,6 C -7,4 C 16,1 km/h (3 Bft) 96,40 %
04.01.2016 13:40 -4,4 C 91 % 996,4 hPa 0,0 l/m 10,0 km/h (2 Bft) NO 55 0 min 0,000 mm 0,0 UV-I 103 W/m -5,6 C -8,3 C 16,1 km/h (3 Bft) 100,00 %
04.01.2016 13:45 -4,3 C 91 % 996,4 hPa 0,0 l/m 11,0 km/h (2 Bft) NO 52 0 min 0,000 mm 0,0 UV-I 87 W/m -5,5 C -9,1 C 16,1 km/h (3 Bft) 98,35 %
04.01.2016 13:50 -4,4 C 91 % 996,4 hPa 0,0 l/m 9,0 km/h (2 Bft) O-NO 61 0 min 0,000 mm 0,0 UV-I 49 W/m -5,6 C -7,3 C 14,5 km/h (3 Bft) 99,05 %
04.01.2016 13:55 -4,4 C 91 % 996,4 hPa 0,0 l/m 8,0 km/h (2 Bft) NO 46 0 min 0,000 mm 0,0 UV-I 39 W/m -5,6 C -6,3 C 14,5 km/h (3 Bft) 100,00 %
04.01.2016 14:00 -4,5 C 92 % 996,4 hPa 0,0 l/m 7,0 km/h (2 Bft) NO 56 0 min 0,025 mm 0,0 UV-I 44 W/m -5,6 C -5,2 C 11,3 km/h (2 Bft) 99,15 %
04.01.2016 14:05 -4,5 C 93 % 996,4 hPa 0,0 l/m 6,4 km/h (2 Bft) O-NO 71 0 min 0,000 mm 0,0 UV-I 60 W/m -5,5 C -4,4 C 9,7 km/h (2 Bft) 99,15 %
04.01.2016 14:10 -4,4 C 93 % 996,4 hPa 0,0 l/m 6,9 km/h (2 Bft) O-NO 71 0 min 0,000 mm 0,0 UV-I 68 W/m -5,4 C -5,0 C 12,9 km/h (3 Bft) 98,31 %
04.01.2016 14:15 -4,4 C 93 % 996,4 hPa 0,0 l/m 6,5 km/h (2 Bft) O-NO 73 0 min 0,000 mm 0,0 UV-I 54 W/m -5,4 C -4,5 C 9,7 km/h (2 Bft) 97,44 %
04.01.2016 14:20 -4,4 C 93 % 996,4 hPa 0,0 l/m 7,1 km/h (2 Bft) NO 54 0 min 0,000 mm 0,0 UV-I 47 W/m -5,4 C -5,2 C 12,9 km/h (3 Bft) 99,17 %
04.01.2016 14:25 -4,4 C 93 % 996,4 hPa 0,0 l/m 8,0 km/h (2 Bft) O-NO 63 0 min 0,000 mm 0,0 UV-I 31 W/m -5,4 C -6,3 C 16,1 km/h (3 Bft) 99,15 %
04.01.2016 14:30 -4,4 C 93 % 996,5 hPa 0,0 l/m 6,1 km/h (2 Bft) O 82 0 min 0,000 mm 0,0 UV-I 30 W/m -5,4 C -4,4 C 11,3 km/h (2 Bft) 98,31 %
04.01.2016 14:35 -4,4 C 93 % 996,5 hPa 0,0 l/m 4,2 km/h (1 Bft) NO 52 0 min 0,000 mm 0,0 UV-I 30 W/m -5,4 C -4,4 C 8,0 km/h (2 Bft) 98,31 %
04.01.2016 14:40 -4,4 C 94 % 996,5 hPa 0,0 l/m 5,0 km/h (1 Bft) NO 40 0 min 0,000 mm 0,0 UV-I 29 W/m -5,2 C -4,4 C 8,0 km/h (2 Bft) 98,11 %
04.01.2016 14:45 -4,4 C 94 % 996,6 hPa 0,0 l/m 4,6 km/h (1 Bft) NO 36 0 min 0,000 mm 0,0 UV-I 28 W/m -5,2 C -4,4 C 6,4 km/h (2 Bft) 96,67 %
04.01.2016 14:50 -4,4 C 94 % 996,6 hPa 0,0 l/m 3,9 km/h (1 Bft) NO 36 0 min 0,000 mm 0,0 UV-I 23 W/m -5,2 C -4,4 C 6,4 km/h (2 Bft) 100,00 %
04.01.2016 14:55 -4,4 C 94 % 996,7 hPa 0,0 l/m 4,7 km/h (1 Bft) NO 48 0 min 0,000 mm 0,0 UV-I 18 W/m -5,2 C -4,4 C 8,0 km/h (2 Bft) 98,29 %
04.01.2016 15:00 -4,4 C 94 % 996,8 hPa 0,0 l/m 4,2 km/h (1 Bft) NO 47 0 min 0,000 mm 0,0 UV-I 15 W/m -5,2 C -4,4 C 6,4 km/h (2 Bft) 100,00 %
04.01.2016 15:05 -4,5 C 94 % 996,9 hPa 0,0 l/m 4,5 km/h (1 Bft) NO 49 0 min 0,000 mm 0,0 UV-I 11 W/m -5,3 C -4,5 C 6,4 km/h (2 Bft) 97,52 %
04.01.2016 15:10 -4,5 C 94 % 997,0 hPa 0,0 l/m 3,8 km/h (1 Bft) O-NO 59 0 min 0,000 mm 0,0 UV-I 9 W/m -5,3 C -4,5 C 6,4 km/h (2 Bft) 97,44 %
04.01.2016 15:15 -4,6 C 94 % 997,1 hPa 0,0 l/m 5,8 km/h (2 Bft) O-NO 57 0 min 0,000 mm 0,0 UV-I 11 W/m -5,4 C -4,6 C 8,0 km/h (2 Bft) 97,46 %
04.01.2016 15:20 -4,5 C 94 % 997,1 hPa 0,0 l/m 4,6 km/h (1 Bft) O-NO 71 0 min 0,000 mm 0,0 UV-I 12 W/m -5,3 C -4,5 C 8,0 km/h (2 Bft) 96,58 %
04.01.2016 15:25 -4,6 C 94 % 997,1 hPa 0,0 l/m 4,3 km/h (1 Bft) O-NO 74 0 min 0,000 mm 0,0 UV-I 12 W/m -5,4 C -4,6 C 6,4 km/h (2 Bft) 95,41 %
04.01.2016 15:30 -4,6 C 94 % 997,1 hPa 0,0 l/m 4,9 km/h (1 Bft) O-NO 62 0 min 0,000 mm 0,0 UV-I 11 W/m -5,4 C -4,6 C 8,0 km/h (2 Bft) 95,76 %
04.01.2016 15:35 -4,6 C 94 % 997,1 hPa 0,0 l/m 4,2 km/h (1 Bft) O-NO 66 0 min 0,000 mm 0,0 UV-I 11 W/m -5,4 C -4,6 C 6,4 km/h (2 Bft) 98,29 %
04.01.2016 15:40 -4,6 C 94 % 997,1 hPa 0,0 l/m 4,2 km/h (1 Bft) O-NO 65 0 min 0,000 mm 0,0 UV-I 10 W/m -5,4 C -4,6 C 6,4 km/h (2 Bft) 98,31 %
04.01.2016 15:45 -4,7 C 94 % 997,1 hPa 0,0 l/m 5,4 km/h (1 Bft) O-NO 65 0 min 0,000 mm 0,0 UV-I 7 W/m -5,5 C -4,7 C 8,0 km/h (2 Bft) 99,15 %
04.01.2016 15:50 -4,7 C 94 % 997,1 hPa 0,0 l/m 5,2 km/h (1 Bft) NO 56 0 min 0,000 mm 0,0 UV-I 7 W/m -5,5 C -4,7 C 8,0 km/h (2 Bft) 95,73 %
04.01.2016 15:55 -4,7 C 95 % 997,2 hPa 0,0 l/m 4,6 km/h (1 Bft) NO 50 0 min 0,000 mm 0,0 UV-I 7 W/m -5,4 C -4,7 C 6,4 km/h (2 Bft) 100,00 %
04.01.2016 16:00 -4,6 C 95 % 997,2 hPa 0,0 l/m 4,0 km/h (1 Bft) O-NO 57 0 min 0,000 mm 0,0 UV-I 6 W/m -5,3 C -4,6 C 6,4 km/h (2 Bft) 100,00 %
04.01.2016 16:05 -4,6 C 95 % 997,3 hPa 0,0 l/m 3,5 km/h (1 Bft) O-NO 57 0 min 0,000 mm 0,0 UV-I 5 W/m -5,3 C -4,6 C 6,4 km/h (2 Bft) 98,31 %
04.01.2016 16:10 -4,5 C 95 % 997,3 hPa 0,0 l/m 3,8 km/h (1 Bft) NO 44 0 min 0,000 mm 0,0 UV-I 3 W/m -5,2 C -4,5 C 6,4 km/h (2 Bft) 98,17 %
04.01.2016 16:15 -4,5 C 95 % 997,4 hPa 0,0 l/m 3,9 km/h (1 Bft) N-NO 31 0 min 0,000 mm 0,0 UV-I 0 W/m -5,2 C -4,5 C 6,4 km/h (2 Bft) 99,15 %
04.01.2016 16:20 -4,4 C 95 % 997,5 hPa 0,0 l/m 2,3 km/h (1 Bft) NO 51 0 min 0,000 mm 0,0 UV-I 0 W/m -5,1 C -4,4 C 3,2 km/h (1 Bft) 99,15 %
04.01.2016 16:25 -4,4 C 94 % 997,4 hPa 0,0 l/m 2,5 km/h (1 Bft) NO 51 0 min 0,000 mm 0,0 UV-I 0 W/m -5,2 C -4,4 C 4,8 km/h (1 Bft) 97,46 %
04.01.2016 16:30 -4,4 C 95 % 997,5 hPa 0,0 l/m 3,0 km/h (1 Bft) NO 51 0 min 0,000 mm 0,0 UV-I 0 W/m -5,1 C -4,4 C 4,8 km/h (1 Bft) 99,15 %
04.01.2016 16:35 -4,4 C 94 % 997,5 hPa 0,0 l/m 3,4 km/h (1 Bft) NO 51 0 min 0,000 mm 0,0 UV-I 0 W/m -5,2 C -4,4 C 4,8 km/h (1 Bft) 100,00 %
04.01.2016 16:40 -4,3 C 94 % 997,6 hPa 0,0 l/m 3,8 km/h (1 Bft) NO 37 0 min 0,000 mm 0,0 UV-I 0 W/m -5,1 C -4,3 C 6,4 km/h (2 Bft) 98,29 %
04.01.2016 16:45 -4,3 C 94 % 997,7 hPa 0,0 l/m 3,5 km/h (1 Bft) NO 52 0 min 0,000 mm 0,0 UV-I 0 W/m -5,1 C -4,3 C 4,8 km/h (1 Bft) 98,31 %
04.01.2016 16:50 -4,3 C 94 % 997,8 hPa 0,0 l/m 4,8 km/h (1 Bft) O-NO 59 0 min 0,000 mm 0,0 UV-I 0 W/m -5,1 C -4,3 C 8,0 km/h (2 Bft) 99,06 %
04.01.2016 16:55 -4,3 C 94 % 997,7 hPa 0,0 l/m 4,2 km/h (1 Bft) NO 51 0 min 0,000 mm 0,0 UV-I 0 W/m -5,1 C -4,3 C 6,4 km/h (2 Bft) 99,17 %
04.01.2016 17:00 -4,3 C 94 % 997,8 hPa 0,0 l/m 5,9 km/h (2 Bft) N-NO 30 0 min 0,000 mm 0,0 UV-I 0 W/m -5,1 C -4,3 C 9,7 km/h (2 Bft) 98,31 %
04.01.2016 17:05 -4,4 C 94 % 997,7 hPa 0,0 l/m 7,1 km/h (2 Bft) NO 43 0 min 0,000 mm 0,0 UV-I 0 W/m -5,2 C -5,2 C 11,3 km/h (2 Bft) 98,31 %
04.01.2016 17:10 -4,4 C 94 % 997,8 hPa 0,0 l/m 4,4 km/h (1 Bft) NO 54 0 min 0,000 mm 0,0 UV-I 0 W/m -5,2 C -4,4 C 6,4 km/h (2 Bft) 96,58 %
04.01.2016 17:15 -4,4 C 94 % 997,8 hPa 0,0 l/m 4,3 km/h (1 Bft) NO 41 0 min 0,000 mm 0,0 UV-I 0 W/m -5,2 C -4,4 C 8,0 km/h (2 Bft) 97,46 %
04.01.2016 17:20 -4,5 C 94 % 997,8 hPa 0,0 l/m 4,9 km/h (1 Bft) NO 52 0 min 0,000 mm 0,0 UV-I 0 W/m -5,3 C -4,5 C 8,0 km/h (2 Bft) 96,58 %
04.01.2016 17:25 -4,4 C 95 % 997,9 hPa 0,0 l/m 4,2 km/h (1 Bft) NO 34 0 min 0,000 mm 0,0 UV-I 0 W/m -5,1 C -4,4 C 8,0 km/h (2 Bft) 96,69 %
04.01.2016 17:30 -4,3 C 95 % 997,9 hPa 0,0 l/m 3,4 km/h (1 Bft) NO 36 0 min 0,000 mm 0,0 UV-I 0 W/m -5,0 C -4,3 C 4,8 km/h (1 Bft) 97,25 %
04.01.2016 17:35 -4,3 C 94 % 997,9 hPa 0,0 l/m 4,7 km/h (1 Bft) NO 37 0 min 0,000 mm 0,0 UV-I 0 W/m -5,1 C -4,3 C 8,0 km/h (2 Bft) 98,33 %
04.01.2016 17:40 -4,3 C 94 % 997,9 hPa 0,0 l/m 4,4 km/h (1 Bft) NO 55 0 min 0,000 mm 0,0 UV-I 0 W/m -5,1 C -4,3 C 6,4 km/h (2 Bft) 96,61 %
04.01.2016 17:45 -4,3 C 94 % 997,8 hPa 0,0 l/m 5,0 km/h (1 Bft) O-NO 57 0 min 0,000 mm 0,0 UV-I 0 W/m -5,1 C -4,3 C 8,0 km/h (2 Bft) 98,31 %
04.01.2016 17:50 -4,3 C 94 % 997,9 hPa 0,0 l/m 3,3 km/h (1 Bft) O-NO 57 0 min 0,000 mm 0,0 UV-I 0 W/m -5,1 C -4,3 C 6,4 km/h (2 Bft) 100,00 %
04.01.2016 17:55 -4,3 C 94 % 997,8 hPa 0,0 l/m 2,7 km/h (1 Bft) O-NO 57 0 min 0,000 mm 0,0 UV-I 0 W/m -5,1 C -4,3 C 6,4 km/h (2 Bft) 99,15 %
04.01.2016 18:00 -4,3 C 94 % 997,8 hPa 0,0 l/m 3,4 km/h (1 Bft) NO 40 0 min 0,000 mm 0,0 UV-I 0 W/m -5,1 C -4,3 C 4,8 km/h (1 Bft) 98,29 %
04.01.2016 18:05 -4,3 C 94 % 997,8 hPa 0,0 l/m 5,2 km/h (1 Bft) N-NO 31 0 min 0,000 mm 0,0 UV-I 0 W/m -5,1 C -4,3 C 8,0 km/h (2 Bft) 99,08 %
04.01.2016 18:10 -4,3 C 94 % 997,8 hPa 0,0 l/m 6,3 km/h (2 Bft) O-NO 59 0 min 0,000 mm 0,0 UV-I 0 W/m -5,1 C -4,3 C 9,7 km/h (2 Bft) 100,00 %
04.01.2016 18:15 -4,3 C 94 % 997,9 hPa 0,0 l/m 4,6 km/h (1 Bft) O-NO 60 0 min 0,000 mm 0,0 UV-I 0 W/m -5,1 C -4,3 C 8,0 km/h (2 Bft) 98,33 %
04.01.2016 18:20 -4,4 C 94 % 997,8 hPa 0,0 l/m 5,5 km/h (1 Bft) NO 51 0 min 0,000 mm 0,0 UV-I 0 W/m -5,2 C -4,4 C 8,0 km/h (2 Bft) 99,17 %
04.01.2016 18:25 -4,4 C 94 % 997,9 hPa 0,0 l/m 4,7 km/h (1 Bft) O-NO 62 0 min 0,000 mm 0,0 UV-I 0 W/m -5,2 C -4,4 C 8,0 km/h (2 Bft) 97,44 %
04.01.2016 18:30 -4,4 C 94 % 997,9 hPa 0,0 l/m 5,9 km/h (2 Bft) O-NO 58 0 min 0,000 mm 0,0 UV-I 0 W/m -5,2 C -4,4 C 9,7 km/h (2 Bft) 100,00 %
04.01.2016 18:35 -4,4 C 94 % 998,0 hPa 0,0 l/m 4,6 km/h (1 Bft) O-NO 58 0 min 0,000 mm 0,0 UV-I 0 W/m -5,2 C -4,4 C 8,0 km/h (2 Bft) 100,00 %
04.01.2016 18:40 -4,4 C 94 % 997,9 hPa 0,0 l/m 4,6 km/h (1 Bft) NO 55 0 min 0,000 mm 0,0 UV-I 0 W/m -5,2 C -4,4 C 8,0 km/h (2 Bft) 97,44 %
04.01.2016 18:45 -4,4 C 95 % 997,9 hPa 0,0 l/m 4,5 km/h (1 Bft) NO 43 0 min 0,000 mm 0,0 UV-I 0 W/m -5,1 C -4,4 C 8,0 km/h (2 Bft) 98,31 %
04.01.2016 18:50 -4,4 C 94 % 997,9 hPa 0,0 l/m 5,5 km/h (1 Bft) O-NO 67 0 min 0,000 mm 0,0 UV-I 0 W/m -5,2 C -4,4 C 8,0 km/h (2 Bft) 100,00 %
04.01.2016 18:55 -4,5 C 94 % 997,9 hPa 0,0 l/m 5,4 km/h (1 Bft) O-NO 62 0 min 0,000 mm 0,0 UV-I 0 W/m -5,3 C -4,5 C 9,7 km/h (2 Bft) 98,29 %
04.01.2016 19:00 -4,5 C 95 % 997,9 hPa 0,0 l/m 6,4 km/h (2 Bft) O-NO 67 0 min 0,000 mm 0,0 UV-I 0 W/m -5,2 C -4,4 C 9,7 km/h (2 Bft) 98,25 %
04.01.2016 19:05 -4,6 C 94 % 998,0 hPa 0,0 l/m 4,8 km/h (1 Bft) NO 51 0 min 0,000 mm 0,0 UV-I 0 W/m -5,4 C -4,6 C 4,8 km/h (1 Bft) 100,00 %
04.01.2016 19:10 -4,6 C 94 % 998,1 hPa 0,0 l/m 4,1 km/h (1 Bft) NO 44 0 min 0,000 mm 0,0 UV-I 0 W/m -5,4 C -4,6 C 6,4 km/h (2 Bft) 99,24 %
04.01.2016 19:15 -4,6 C 95 % 998,1 hPa 0,0 l/m 3,5 km/h (1 Bft) NO 42 0 min 0,000 mm 0,0 UV-I 0 W/m -5,3 C -4,6 C 6,4 km/h (2 Bft) 95,65 %
04.01.2016 19:20 -4,6 C 95 % 998,1 hPa 0,0 l/m 3,9 km/h (1 Bft) NO 51 0 min 0,000 mm 0,0 UV-I 0 W/m -5,3 C -4,6 C 6,4 km/h (2 Bft) 97,44 %
04.01.2016 19:25 -4,6 C 95 % 998,1 hPa 0,0 l/m 3,0 km/h (1 Bft) NO 51 0 min 0,000 mm 0,0 UV-I 0 W/m -5,3 C -4,6 C 4,8 km/h (1 Bft) 95,65 %
04.01.2016 19:30 -4,7 C 95 % 998,1 hPa 0,0 l/m 4,1 km/h (1 Bft) N-NO 30 0 min 0,000 mm 0,0 UV-I 0 W/m -5,4 C -4,7 C 6,4 km/h (2 Bft) 95,87 %
04.01.2016 19:35 -4,6 C 95 % 998,1 hPa 0,0 l/m 2,8 km/h (1 Bft) N-NO 30 0 min 0,000 mm 0,0 UV-I 0 W/m -5,3 C -4,6 C 4,8 km/h (1 Bft) 96,67 %
04.01.2016 19:40 -4,6 C 95 % 998,1 hPa 0,0 l/m 2,0 km/h (1 Bft) N-NO 30 0 min 0,000 mm 0,0 UV-I 0 W/m -5,3 C -4,6 C 4,8 km/h (1 Bft) 96,43 %
04.01.2016 19:45 -4,5 C 95 % 998,2 hPa 0,0 l/m 2,0 km/h (1 Bft) N-NO 30 0 min 0,000 mm 0,0 UV-I 0 W/m -5,2 C -4,5 C 4,8 km/h (1 Bft) 98,33 %
04.01.2016 19:50 -4,5 C 95 % 998,3 hPa 0,0 l/m 3,6 km/h (1 Bft) O-NO 63 0 min 0,000 mm 0,0 UV-I 0 W/m -5,2 C -4,5 C 6,4 km/h (2 Bft) 99,11 %
04.01.2016 19:55 -4,4 C 95 % 998,2 hPa 0,0 l/m 2,1 km/h (1 Bft) O-NO 68 0 min 0,000 mm 0,0 UV-I 0 W/m -5,1 C -4,4 C 4,8 km/h (1 Bft) 99,19 %
04.01.2016 20:00 -4,4 C 95 % 998,2 hPa 0,0 l/m 2,0 km/h (1 Bft) O-NO 68 0 min 0,000 mm 0,0 UV-I 0 W/m -5,1 C -4,4 C 4,8 km/h (1 Bft) 100,00 %
04.01.2016 20:05 -4,5 C 95 % 998,2 hPa 0,0 l/m 3,0 km/h (1 Bft) O-NO 68 0 min 0,000 mm 0,0 UV-I 0 W/m -5,2 C -4,5 C 4,8 km/h (1 Bft) 100,00 %
04.01.2016 20:10 -4,6 C 95 % 998,2 hPa 0,0 l/m 2,6 km/h (1 Bft) O-NO 68 0 min 0,000 mm 0,0 UV-I 0 W/m -5,3 C -4,6 C 4,8 km/h (1 Bft) 99,13 %
04.01.2016 20:15 -4,6 C 95 % 998,2 hPa 0,0 l/m 1,1 km/h (1 Bft) O 92 0 min 0,000 mm 0,0 UV-I 0 W/m -5,3 C -4,6 C 3,2 km/h (1 Bft) 99,15 %
04.01.2016 20:20 -4,6 C 95 % 998,3 hPa 0,0 l/m 0,7 km/h (0 Bft) O 92 0 min 0,000 mm 0,0 UV-I 0 W/m -5,3 C -4,6 C 3,2 km/h (1 Bft) 98,35 %
04.01.2016 20:25 -4,6 C 95 % 998,2 hPa 0,0 l/m 0,1 km/h (0 Bft) O 92 0 min 0,000 mm 0,0 UV-I 0 W/m -5,3 C -4,6 C 1,6 km/h (1 Bft) 100,00 %
04.01.2016 20:30 -4,6 C 95 % 998,2 hPa 0,0 l/m 0,5 km/h (0 Bft) O 92 0 min 0,000 mm 0,0 UV-I 0 W/m -5,3 C -4,6 C 3,2 km/h (1 Bft) 99,15 %
04.01.2016 20:35 -4,6 C 95 % 998,1 hPa 0,0 l/m 0,5 km/h (0 Bft) O 92 0 min 0,000 mm 0,0 UV-I 0 W/m -5,3 C -4,6 C 3,2 km/h (1 Bft) 99,11 %
04.01.2016 20:40 -4,7 C 95 % 998,2 hPa 0,0 l/m 1,2 km/h (1 Bft) O 92 0 min 0,000 mm 0,0 UV-I 0 W/m -5,4 C -4,7 C 3,2 km/h (1 Bft) 99,15 %
04.01.2016 20:45 -4,7 C 95 % 998,2 hPa 0,0 l/m 1,4 km/h (1 Bft) O 92 0 min 0,000 mm 0,0 UV-I 0 W/m -5,4 C -4,7 C 3,2 km/h (1 Bft) 100,00 %
04.01.2016 20:50 -4,8 C 95 % 998,3 hPa 0,0 l/m 3,6 km/h (1 Bft) NO 54 0 min 0,000 mm 0,0 UV-I 0 W/m -5,5 C -4,8 C 4,8 km/h (1 Bft) 98,26 %
04.01.2016 20:55 -5,0 C 95 % 998,3 hPa 0,0 l/m 3,0 km/h (1 Bft) NO 43 0 min 0,000 mm 0,0 UV-I 0 W/m -5,7 C -5,0 C 4,8 km/h (1 Bft) 99,05 %
04.01.2016 21:00 -5,1 C 95 % 998,3 hPa 0,0 l/m 2,3 km/h (1 Bft) NO 43 0 min 0,000 mm 0,0 UV-I 0 W/m -5,8 C -5,1 C 4,8 km/h (1 Bft) 100,00 %
04.01.2016 21:05 -5,1 C 95 % 998,2 hPa 0,0 l/m 3,2 km/h (1 Bft) NO 43 0 min 0,000 mm 0,0 UV-I 0 W/m -5,8 C -5,1 C 4,8 km/h (1 Bft) 98,06 %
04.01.2016 21:10 -5,1 C 95 % 998,2 hPa 0,0 l/m 2,5 km/h (1 Bft) NO 43 0 min 0,000 mm 0,0 UV-I 0 W/m -5,8 C -5,1 C 3,2 km/h (1 Bft) 100,00 %
04.01.2016 21:15 -5,1 C 95 % 998,3 hPa 0,0 l/m 0,7 km/h (0 Bft) NO 43 0 min 0,000 mm 0,0 UV-I 0 W/m -5,8 C -5,1 C 3,2 km/h (1 Bft) 96,58 %
04.01.2016 21:20 -5,0 C 96 % 998,4 hPa 0,0 l/m 0,0 km/h (0 Bft) NO 43 0 min 0,000 mm 0,0 UV-I 0 W/m -5,5 C -5,0 C 1,6 km/h (1 Bft) 96,40 %
04.01.2016 21:25 -4,9 C 96 % 998,4 hPa 0,0 l/m 0,1 km/h (0 Bft) NO 43 0 min 0,000 mm 0,0 UV-I 0 W/m -5,4 C -4,9 C 1,6 km/h (1 Bft) 96,85 %
04.01.2016 21:30 -4,8 C 96 % 998,4 hPa 0,0 l/m 0,9 km/h (0 Bft) NO 43 0 min 0,000 mm 0,0 UV-I 0 W/m -5,3 C -4,8 C 3,2 km/h (1 Bft) 98,21 %
04.01.2016 21:35 -4,8 C 96 % 998,3 hPa 0,0 l/m 2,5 km/h (1 Bft) NO 43 0 min 0,000 mm 0,0 UV-I 0 W/m -5,3 C -4,8 C 4,8 km/h (1 Bft) 96,12 %
04.01.2016 21:40 -4,7 C 96 % 998,3 hPa 0,0 l/m 2,8 km/h (1 Bft) NO 44 0 min 0,000 mm 0,0 UV-I 0 W/m -5,2 C -4,7 C 4,8 km/h (1 Bft) 97,67 %
04.01.2016 21:45 -4,7 C 96 % 998,3 hPa 0,0 l/m 2,0 km/h (1 Bft) NO 44 0 min 0,000 mm 0,0 UV-I 0 W/m -5,2 C -4,7 C 3,2 km/h (1 Bft) 97,56 %
04.01.2016 21:50 -4,7 C 96 % 998,4 hPa 0,0 l/m 1,9 km/h (1 Bft) NO 44 0 min 0,000 mm 0,0 UV-I 0 W/m -5,2 C -4,7 C 3,2 km/h (1 Bft) 97,25 %
04.01.2016 21:55 -4,6 C 96 % 998,4 hPa 0,0 l/m 1,1 km/h (1 Bft) NO 44 0 min 0,000 mm 0,0 UV-I 0 W/m -5,1 C -4,6 C 3,2 km/h (1 Bft) 99,21 %
04.01.2016 22:00 -4,6 C 96 % 998,4 hPa 0,0 l/m 1,6 km/h (1 Bft) NO 44 0 min 0,000 mm 0,0 UV-I 0 W/m -5,1 C -4,6 C 3,2 km/h (1 Bft) 98,57 %
04.01.2016 22:10 -4,6 C 96 % 998,3 hPa 0,0 l/m 1,3 km/h (1 Bft) O 81 0 min 0,000 mm 0,0 UV-I 0 W/m -5,1 C -4,6 C 1,6 km/h (1 Bft) 99,63 %
04.01.2016 22:15 -4,5 C 95 % 998,4 hPa 0,0 l/m 4,0 km/h (1 Bft) N-NO 33 0 min 0,000 mm 0,0 UV-I 0 W/m -5,2 C -4,5 C 8,0 km/h (2 Bft) 99,10 %
04.01.2016 22:20 -4,4 C 95 % 998,4 hPa 0,0 l/m 4,5 km/h (1 Bft) NO 48 0 min 0,000 mm 0,0 UV-I 0 W/m -5,1 C -4,4 C 6,4 km/h (2 Bft) 97,58 %
04.01.2016 22:25 -4,4 C 95 % 998,5 hPa 0,0 l/m 3,2 km/h (1 Bft) NO 55 0 min 0,000 mm 0,0 UV-I 0 W/m -5,1 C -4,4 C 4,8 km/h (1 Bft) 100,00 %
04.01.2016 22:30 -4,4 C 95 % 998,6 hPa 0,0 l/m 3,7 km/h (1 Bft) O-NO 67 0 min 0,000 mm 0,0 UV-I 0 W/m -5,1 C -4,4 C 6,4 km/h (2 Bft) 99,15 %
04.01.2016 22:35 -4,4 C 95 % 998,6 hPa 0,0 l/m 5,2 km/h (1 Bft) O-SO 109 0 min 0,000 mm 0,0 UV-I 0 W/m -5,1 C -4,4 C 8,0 km/h (2 Bft) 97,32 %
04.01.2016 22:40 -4,4 C 95 % 998,6 hPa 0,0 l/m 3,7 km/h (1 Bft) NO 55 0 min 0,000 mm 0,0 UV-I 0 W/m -5,1 C -4,4 C 6,4 km/h (2 Bft) 100,00 %
04.01.2016 22:45 -4,4 C 95 % 998,6 hPa 0,0 l/m 3,2 km/h (1 Bft) O-NO 62 0 min 0,000 mm 0,0 UV-I 0 W/m -5,1 C -4,4 C 4,8 km/h (1 Bft) 98,35 %
04.01.2016 22:50 -4,4 C 95 % 998,7 hPa 0,0 l/m 2,7 km/h (1 Bft) O-NO 78 0 min 0,000 mm 0,0 UV-I 0 W/m -5,1 C -4,4 C 4,8 km/h (1 Bft) 96,61 %
04.01.2016 22:55 -4,4 C 95 % 998,5 hPa 0,0 l/m 2,2 km/h (1 Bft) O-NO 78 0 min 0,000 mm 0,0 UV-I 0 W/m -5,1 C -4,4 C 3,2 km/h (1 Bft) 98,29 %
04.01.2016 23:00 -4,4 C 95 % 998,6 hPa 0,0 l/m 1,6 km/h (1 Bft) O-NO 78 0 min 0,000 mm 0,0 UV-I 0 W/m -5,1 C -4,4 C 3,2 km/h (1 Bft) 98,21 %
04.01.2016 23:05 -4,3 C 95 % 998,6 hPa 0,0 l/m 2,9 km/h (1 Bft) O-NO 62 0 min 0,000 mm 0,0 UV-I 0 W/m -5,0 C -4,3 C 4,8 km/h (1 Bft) 100,00 %
04.01.2016 23:10 -4,4 C 95 % 998,6 hPa 0,0 l/m 4,5 km/h (1 Bft) O-NO 61 0 min 0,000 mm 0,0 UV-I 0 W/m -5,1 C -4,4 C 6,4 km/h (2 Bft) 100,00 %
04.01.2016 23:15 -4,4 C 95 % 998,6 hPa 0,0 l/m 4,0 km/h (1 Bft) NO 39 0 min 0,000 mm 0,0 UV-I 0 W/m -5,1 C -4,4 C 6,4 km/h (2 Bft) 100,00 %
04.01.2016 23:20 -4,4 C 95 % 998,6 hPa 0,0 l/m 2,2 km/h (1 Bft) NO 39 0 min 0,000 mm 0,0 UV-I 0 W/m -5,1 C -4,4 C 4,8 km/h (1 Bft) 98,29 %
04.01.2016 23:25 -4,4 C 95 % 998,7 hPa 0,0 l/m 2,7 km/h (1 Bft) O-NO 67 0 min 0,000 mm 0,0 UV-I 0 W/m -5,1 C -4,4 C 6,4 km/h (2 Bft) 97,46 %
04.01.2016 23:30 -4,4 C 95 % 998,7 hPa 0,0 l/m 2,8 km/h (1 Bft) O-NO 67 0 min 0,000 mm 0,0 UV-I 0 W/m -5,1 C -4,4 C 4,8 km/h (1 Bft) 98,35 %
04.01.2016 23:35 -4,3 C 95 % 998,6 hPa 0,0 l/m 3,2 km/h (1 Bft) O-NO 67 0 min 0,000 mm 0,0 UV-I 0 W/m -5,0 C -4,3 C 6,4 km/h (2 Bft) 96,49 %
04.01.2016 23:40 -4,3 C 95 % 998,6 hPa 0,0 l/m 3,1 km/h (1 Bft) O 80 0 min 0,000 mm 0,0 UV-I 0 W/m -5,0 C -4,3 C 6,4 km/h (2 Bft) 96,61 %
04.01.2016 23:45 -4,3 C 95 % 998,7 hPa 0,0 l/m 1,8 km/h (1 Bft) O 79 0 min 0,000 mm 0,0 UV-I 0 W/m -5,0 C -4,3 C 4,8 km/h (1 Bft) 97,44 %
04.01.2016 23:50 -4,3 C 95 % 998,7 hPa 0,0 l/m 2,4 km/h (1 Bft) O-NO 57 0 min 0,000 mm 0,0 UV-I 0 W/m -5,0 C -4,3 C 4,8 km/h (1 Bft) 97,32 %
04.01.2016 23:55 -4,3 C 95 % 998,7 hPa 0,0 l/m 3,4 km/h (1 Bft) O-NO 71 0 min 0,000 mm 0,0 UV-I 0 W/m -5,0 C -4,3 C 6,4 km/h (2 Bft) 97,64 %
_ Min-Zeit 00:00 06:10 12:50 - 21:20 - - - - - - 00:00 00:40 20:25 05:20
Minimum _ -6,4 C 90 % 996,1 hPa - 0,0 km/h (0 Bft) - - - - - - -7,5 C -20,9 C 1,6 km/h (1 Bft) 95,00 %
_ Max-Zeit 23:50 21:20 00:00 00:00 00:40 - - 12:40 13:00 00:00 12:40 17:30 16:40 00:35 00:05
Maximum _ -4,2 C 96 % 1002,5 hPa 0,0 l/m 26,4 km/h
O-NO (4 Bft)
- - 5 min 0,051 mm 0,0 UV-I 184 W/m -5,0 C -4,3 C 38,6 km/h
O-NO (5 Bft)
100,00 %
Durchschnitt _ -5,0 C 93 % 997,9 hPa #0,0 l/m 9,7 km/h (2 Bft) O-NO - #10 min. #0,152 mm 0,0 UV-I 59 W/m -6,0 C -9,1 C 15,3 km/h (3 Bft) 98,32 %